STARLINK-34639, 64767

Orbit data source: Space-Track

STARLINK-34639, 64767 is a payload satellite owned by SpaceX/Seattle (US) in LEO that was launched on Tue, 08 Jul 2025 UTC via an FALCON 9 launch vehicle from the Air Force Eastern Test Range (AFETR). Payload-class satellites include a variety of spacecraft equipped with specific instruments for various scientific and technological missions. These include communications satellites like Starlink; space stations such as the ISS; scientific satellites like the Hubble; Earth observation satellites from companies like Planet Labs, Umbra, and HawkEye 360; GPS; miniature CubeSats for education and research; and military/defense satellites.

Loading next visibility...
Identifier
64767, 2025-147N
Orbit
LEO
Country
Flag of USUS
Related business
Manufacturer
SpaceX/Seattle
Mission
Operational Commercial Communications
Bus & Motor
STARLINK V2MO, Unknown motor
Mass
575 kg wet, ~530 kg dry
Launch date (UTC)
2025-07-08 (1 year ago)
Launch vehicle
FALCON 9
Launch site
Air Force Eastern Test Range (AFETR)
Object type
Payload
Rocket body
Debris
Shape & HBR
Box + 1 Pan, 17.7 m
Radar Cross Section
41.120 m², Large (>1 m²)

Expand to show TLE details & history
Last TLE update: 21 hours ago

TLE from 21 hours ago
0 STARLINK-34639
1 64767U 25147N   26235.14717246  .00032180  00000-0  95941-3 0  9994
2 64767  53.1583 186.2748 0001298  89.0583 271.0568 15.34401497 64238
Epoch: 2026-08-23T03:31Z
TLE epoch observation values (Epoch: 2026-08-23T03:31:55.700Z)
Latitude
-0.00005°
Longitude
161.84528°
Altitude
463.584 km
Speed
7.636 km/s
True Right ascension
12h 25m 05s
True Declination
0° 00' 00"
Sunlit
Object was in daylight at epoch
Visualization orbit readout
Latitude
Unknown
Longitude
Unknown
Altitude
Unknown
Speed
Unknown
Apparent Right ascension
Unknown
Apparent Declination
Unknown
Sunlit
N/A
Visualization observer readout
Local Sidereal Time
15:53:54
Azimuth
Unknown
Elevation
Unknown
Doppler factor
Unknown
Orbital elements
Apogee altitude
463.844 km
Perigee altitude
462.068 km
Semi-major axis
6,841.093 km
Eccentricity
0.00013
Inclination
53.1583°
RAAN
186.2748°
Arg. of periapsis
89.0583°
True anomaly
271.04193°
Mean anomaly
271.0568°
Eccentric anomaly
271.04936°
Mean motion
3.83579 °/min
Orbital period
93.85 mins
BSTAR
0.00095941
Loading maneuver chart data...
Computing Atmospheric mass density...
Loading historical data...
Loading historical data...
Loading historical data...
Loading historical data...
Loading historical data...
Loading historical data...
Loading historical data...

Documentation

Showing up to 5 results
|